Voltar ao catálogo

ONEWEB-0611

AtivoComunicaçõesPO
NORAD 54674·PAYLOAD·🇬🇧 United Kingdom

Lançado Dec 8, 2022 de Cape Canaveral Space Force Station

Loading…

Próximas Passagens (próximas 24 horas)

TLE

AtualizadoSource: CelesTrak SupGP

Época: Sep 14, 2026, 23:23 UTC

1 54674C 22166AJ  26257.97449488 -.00003258  00000+0 -78980-2 0  2578
2 54674  87.9281 226.1035 0002021  80.7396 359.6492 13.21832388    18

Acompanhe ONEWEB-0611 em tempo real com AllMySat

Download on the App Store